Showing default

YAOGAN-35 04B, 53524

Orbit data source: Space-Track

YAOGAN-35 04B, 53524 is a payload satellite owned by PLA GAD (CN) in LEO that was launched on Fri, 19 Aug 2022 UTC via a CHANG ZHENG 2D launch vehicle from the Xichang Space Center, China (XSC). Payload-class satellites include a variety of spacecraft equipped with specific instruments for various scientific and technological missions. These include communications satellites like Starlink; space stations such as the ISS; scientific satellites like the Hubble; Earth observation satellites from companies like Planet Labs, Umbra, and HawkEye 360; GPS; miniature CubeSats for education and research; and military/defense satellites.

Loading next visibility...
Identifier
53524, 2022-100C
Orbit
LEO
Country
Flag of CNCN / PRC
Related business
Manufacturer
DFH
Mission
Operational Defense Sigint
Bus & Motor
Unknown
Mass
~300 kg wet, ~300 kg dry
Launch date (UTC)
2022-08-19 (4 years ago)
Launch vehicle
CHANG ZHENG 2D
Launch site
Xichang Space Center, China (XSC)
Object type
Payload
Rocket body
Debris
Shape & HBR
Box + 2 Pan, 2.5 m
Radar Cross Section
11.063 m², Large (>1 m²)

Expand to show TLE details & history
Last TLE update: 21 hours ago

TLE from 21 hours ago
0 YAOGAN-35 04B
1 53524U 22100C   26172.55109887  .00011139  00000-0  31027-3 0  9996
2 53524  35.0025 359.0644 0005225 323.2970  36.7390 15.35964562105906
Epoch: 2026-06-21T13:13Z
TLE epoch observation values (Epoch: 2026-06-21T13:13:34.942Z)
Latitude
-0.00004°
Longitude
-109.081°
Altitude
454.097 km
Speed
7.644 km/s
True Right ascension
23h 56m 15s
True Declination
0° 00' 00"
Sunlit
Object was in daylight at epoch
Visualization orbit readout
Latitude
Unknown
Longitude
Unknown
Altitude
Unknown
Speed
Unknown
Apparent Right ascension
Unknown
Apparent Declination
Unknown
Sunlit
N/A
Visualization observer readout
Local Sidereal Time
21:29:45
Azimuth
Unknown
Elevation
Unknown
Doppler factor
Unknown
Orbital elements
Apogee altitude
464.899 km
Perigee altitude
457.752 km
Semi-major axis
6,839.462 km
Eccentricity
0.00052
Inclination
35.0025°
RAAN
359.0644°
Arg. of periapsis
323.297°
True anomaly
36.77483°
Mean anomaly
36.739°
Eccentric anomaly
36.75691°
Mean motion
3.83716 °/min
Orbital period
93.82 mins
BSTAR
0.00031027
Loading maneuver chart data...
Computing Atmospheric mass density...
Loading historical data...
Loading historical data...
Loading historical data...
Loading historical data...
Loading historical data...
Loading historical data...
Loading historical data...
Other satellites on launch #100 in the year 2022 (2022-08-19 UTC)

Documentation

Showing up to 5 results
|